Year,Month,Day,Hour,Minute,Value (Times are PST for temperature in C)
2018,06,07,00,00,13.40
2018,06,07,00,01,13.30
2018,06,07,00,02,13.30
2018,06,07,00,03,13.20
2018,06,07,00,04,13.20
2018,06,07,00,05,13.10
2018,06,07,00,06,13.00
2018,06,07,00,07,13.00
2018,06,07,00,08,12.90
2018,06,07,00,09,12.90
2018,06,07,00,10,12.80
2018,06,07,00,11,12.80
2018,06,07,00,12,12.80
2018,06,07,00,13,12.80
2018,06,07,00,14,12.80
2018,06,07,00,15,12.70
2018,06,07,00,16,12.70
2018,06,07,00,17,12.70
2018,06,07,00,18,12.70
2018,06,07,00,19,12.70
2018,06,07,00,20,12.70
2018,06,07,00,21,12.70
2018,06,07,00,22,12.70
2018,06,07,00,23,12.60
2018,06,07,00,24,12.60
2018,06,07,00,25,12.60
2018,06,07,00,26,12.50
2018,06,07,00,27,12.50
2018,06,07,00,28,12.50
2018,06,07,00,29,12.50
2018,06,07,00,30,12.40
2018,06,07,00,31,12.40
2018,06,07,00,32,12.40
2018,06,07,00,33,12.40
2018,06,07,00,34,12.30
2018,06,07,00,35,12.30
2018,06,07,00,36,12.30
2018,06,07,00,37,12.30
2018,06,07,00,38,12.30
2018,06,07,00,39,12.20
2018,06,07,00,40,12.20
2018,06,07,00,41,12.20
2018,06,07,00,42,12.10
2018,06,07,00,43,12.10
2018,06,07,00,44,12.10
2018,06,07,00,45,12.00
2018,06,07,00,46,12.00
2018,06,07,00,47,12.00
2018,06,07,00,48,12.00
2018,06,07,00,49,11.90
2018,06,07,00,50,11.90
2018,06,07,00,51,11.90
2018,06,07,00,52,11.90
2018,06,07,00,53,11.90
2018,06,07,00,54,11.90
2018,06,07,00,55,11.90
2018,06,07,00,56,11.90
2018,06,07,00,57,11.80
2018,06,07,00,58,11.80
2018,06,07,00,59,11.80
2018,06,07,01,00,11.80
2018,06,07,01,01,11.80
2018,06,07,01,02,11.80
2018,06,07,01,03,11.70
2018,06,07,01,04,11.70
2018,06,07,01,05,11.70
2018,06,07,01,06,11.70
2018,06,07,01,07,11.70
2018,06,07,01,08,11.70
2018,06,07,01,09,11.70
2018,06,07,01,10,11.70
2018,06,07,01,11,11.60
2018,06,07,01,12,11.60
2018,06,07,01,13,11.60
2018,06,07,01,14,11.60
2018,06,07,01,15,11.60
2018,06,07,01,16,11.60
2018,06,07,01,17,11.60
2018,06,07,01,18,11.60
2018,06,07,01,19,11.60
2018,06,07,01,20,11.60
2018,06,07,01,21,11.50
2018,06,07,01,22,11.50
2018,06,07,01,23,11.50
2018,06,07,01,24,11.50
2018,06,07,01,25,11.40
2018,06,07,01,26,11.40
2018,06,07,01,27,11.40
2018,06,07,01,28,11.30
2018,06,07,01,29,11.30
2018,06,07,01,30,11.30
2018,06,07,01,31,11.20
2018,06,07,01,32,11.20
2018,06,07,01,33,11.20
2018,06,07,01,34,11.20
2018,06,07,01,35,11.10
2018,06,07,01,36,11.10
2018,06,07,01,37,11.00
2018,06,07,01,38,11.00
2018,06,07,01,39,11.00
2018,06,07,01,40,11.00
2018,06,07,01,41,11.00
2018,06,07,01,42,10.90
2018,06,07,01,43,10.90
2018,06,07,01,44,10.90
2018,06,07,01,45,10.90
2018,06,07,01,46,10.90
2018,06,07,01,47,10.90
2018,06,07,01,48,10.80
2018,06,07,01,49,10.80
2018,06,07,01,50,10.80
2018,06,07,01,51,10.80
2018,06,07,01,52,10.80
2018,06,07,01,53,10.80
2018,06,07,01,54,10.80
2018,06,07,01,55,10.80
2018,06,07,01,56,10.80
2018,06,07,01,57,10.80
2018,06,07,01,58,10.80
2018,06,07,01,59,10.80
2018,06,07,02,00,10.80
2018,06,07,02,01,10.80
2018,06,07,02,02,10.80
2018,06,07,02,03,10.70
2018,06,07,02,04,10.80
2018,06,07,02,05,10.70
2018,06,07,02,06,10.70
2018,06,07,02,07,10.70
2018,06,07,02,08,10.70
2018,06,07,02,09,10.70
2018,06,07,02,10,10.70
2018,06,07,02,11,10.70
2018,06,07,02,12,10.70
2018,06,07,02,13,10.70
2018,06,07,02,14,10.70
2018,06,07,02,15,10.70
2018,06,07,02,16,10.70
2018,06,07,02,17,10.60
2018,06,07,02,18,10.60
2018,06,07,02,19,10.60
2018,06,07,02,20,10.60
2018,06,07,02,21,10.60
2018,06,07,02,22,10.60
2018,06,07,02,23,10.60
2018,06,07,02,24,10.60
2018,06,07,02,25,10.60
2018,06,07,02,26,10.70
2018,06,07,02,27,10.70
2018,06,07,02,28,10.70
2018,06,07,02,29,10.70
2018,06,07,02,30,10.70
2018,06,07,02,31,10.70
2018,06,07,02,32,10.70
2018,06,07,02,33,10.70
2018,06,07,02,34,10.70
2018,06,07,02,35,10.70
2018,06,07,02,36,10.70
2018,06,07,02,37,10.70
2018,06,07,02,38,10.70
2018,06,07,02,39,10.70
2018,06,07,02,40,10.80
2018,06,07,02,41,10.80
2018,06,07,02,42,10.80
2018,06,07,02,43,10.80
2018,06,07,02,44,10.80
2018,06,07,02,45,10.90
2018,06,07,02,46,11.00
2018,06,07,02,47,11.10
2018,06,07,02,48,11.10
2018,06,07,02,49,11.20
2018,06,07,02,50,11.20
2018,06,07,02,51,11.30
2018,06,07,02,52,11.30
2018,06,07,02,53,11.30
2018,06,07,02,54,11.40
2018,06,07,02,55,11.40
2018,06,07,02,56,11.40
2018,06,07,02,57,11.40
2018,06,07,02,58,11.50
2018,06,07,02,59,11.50
2018,06,07,03,00,11.50
2018,06,07,03,01,11.50
2018,06,07,03,02,11.50
2018,06,07,03,03,11.50
2018,06,07,03,04,11.60
2018,06,07,03,05,11.60
2018,06,07,03,06,11.60
2018,06,07,03,07,11.60
2018,06,07,03,08,11.60
2018,06,07,03,09,11.70
2018,06,07,03,10,11.70
2018,06,07,03,11,11.70
2018,06,07,03,12,11.70
2018,06,07,03,13,11.80
2018,06,07,03,14,11.80
2018,06,07,03,15,11.80
2018,06,07,03,16,11.90
2018,06,07,03,17,12.00
2018,06,07,03,18,12.00
2018,06,07,03,19,12.10
2018,06,07,03,20,12.20
2018,06,07,03,21,12.20
2018,06,07,03,22,12.30
2018,06,07,03,23,12.30
2018,06,07,03,24,12.30
2018,06,07,03,25,12.30
2018,06,07,03,26,12.40
2018,06,07,03,27,12.40
2018,06,07,03,28,12.40
2018,06,07,03,29,12.40
2018,06,07,03,30,12.40
2018,06,07,03,31,12.40
2018,06,07,03,32,12.40
2018,06,07,03,33,12.40
2018,06,07,03,34,12.50
2018,06,07,03,35,12.50
2018,06,07,03,36,12.50
2018,06,07,03,37,12.50
2018,06,07,03,38,12.50
2018,06,07,03,39,12.70
2018,06,07,03,40,12.70
2018,06,07,03,41,12.70
2018,06,07,03,42,12.70
2018,06,07,03,43,12.70
2018,06,07,03,44,12.70
2018,06,07,03,45,12.80
2018,06,07,03,46,12.80
2018,06,07,03,47,12.80
2018,06,07,03,48,12.80
2018,06,07,03,49,12.80
2018,06,07,03,50,12.80
2018,06,07,03,51,12.80
2018,06,07,03,52,12.80
2018,06,07,03,53,12.90
2018,06,07,03,54,12.90
2018,06,07,03,55,12.90
2018,06,07,03,56,12.90
2018,06,07,03,57,12.90
2018,06,07,03,58,13.00
2018,06,07,03,59,13.00
2018,06,07,04,00,13.00
2018,06,07,04,01,13.00
2018,06,07,04,02,13.00
2018,06,07,04,03,12.90
2018,06,07,04,04,12.90
2018,06,07,04,05,12.90
2018,06,07,04,06,12.80
2018,06,07,04,07,12.80
2018,06,07,04,08,12.80
2018,06,07,04,09,12.70
2018,06,07,04,10,12.70
2018,06,07,04,11,12.70
2018,06,07,04,12,12.60
2018,06,07,04,13,12.60
2018,06,07,04,14,12.60
2018,06,07,04,15,12.60
2018,06,07,04,16,12.60
2018,06,07,04,17,12.60
2018,06,07,04,18,12.60
2018,06,07,04,19,12.50
2018,06,07,04,20,12.50
2018,06,07,04,21,12.50
2018,06,07,04,22,12.40
2018,06,07,04,23,12.40
2018,06,07,04,24,12.30
2018,06,07,04,25,12.30
2018,06,07,04,26,12.30
2018,06,07,04,27,12.30
2018,06,07,04,28,12.40
2018,06,07,04,29,12.40
2018,06,07,04,30,12.40
2018,06,07,04,31,12.40
2018,06,07,04,32,12.40
2018,06,07,04,33,12.40
2018,06,07,04,34,12.40
2018,06,07,04,35,12.30
2018,06,07,04,36,12.30
2018,06,07,04,37,12.30
2018,06,07,04,38,12.30
2018,06,07,04,39,12.20
2018,06,07,04,40,12.20
2018,06,07,04,41,12.20
2018,06,07,04,42,12.10
2018,06,07,04,43,12.10
2018,06,07,04,44,12.10
2018,06,07,04,45,12.00
2018,06,07,04,46,12.00
2018,06,07,04,47,12.00
2018,06,07,04,48,12.00
2018,06,07,04,49,12.10
2018,06,07,04,50,12.10
2018,06,07,04,51,12.20
2018,06,07,04,52,12.20
2018,06,07,04,53,12.20
2018,06,07,04,54,12.30
2018,06,07,04,55,12.20
2018,06,07,04,56,12.20
2018,06,07,04,57,12.20
2018,06,07,04,58,12.20
2018,06,07,04,59,12.20
2018,06,07,05,00,12.20
2018,06,07,05,01,12.20
2018,06,07,05,02,12.20
2018,06,07,05,03,12.20
2018,06,07,05,04,12.10
2018,06,07,05,05,12.10
2018,06,07,05,06,12.10
2018,06,07,05,07,12.10
2018,06,07,05,08,12.10
2018,06,07,05,09,12.10
2018,06,07,05,10,12.10
2018,06,07,05,11,12.10
2018,06,07,05,12,12.00
2018,06,07,05,13,12.00
2018,06,07,05,14,12.00
2018,06,07,05,15,12.00
2018,06,07,05,16,12.00
2018,06,07,05,17,12.00
2018,06,07,05,18,12.00
2018,06,07,05,19,12.00
2018,06,07,05,20,12.00
2018,06,07,05,21,12.00
2018,06,07,05,22,12.00
2018,06,07,05,23,12.00
2018,06,07,05,24,12.00
2018,06,07,05,25,12.00
2018,06,07,05,26,12.00
2018,06,07,05,27,12.00
2018,06,07,05,28,12.10
2018,06,07,05,29,12.10
2018,06,07,05,30,12.00
2018,06,07,05,31,12.00
2018,06,07,05,32,12.00
2018,06,07,05,33,11.90
2018,06,07,05,34,11.90
2018,06,07,05,35,11.90
2018,06,07,05,36,11.90
2018,06,07,05,37,11.90
2018,06,07,05,38,11.80
2018,06,07,05,39,11.80
2018,06,07,05,40,11.80
2018,06,07,05,41,11.80
2018,06,07,05,42,11.70
2018,06,07,05,43,11.70
2018,06,07,05,44,11.70
2018,06,07,05,45,11.60
2018,06,07,05,46,11.60
2018,06,07,05,47,11.60
2018,06,07,05,48,11.60
2018,06,07,05,49,11.60
2018,06,07,05,50,11.60
2018,06,07,05,51,11.50
2018,06,07,05,52,11.50
2018,06,07,05,53,11.50
2018,06,07,05,54,11.50
2018,06,07,05,55,11.50
2018,06,07,05,56,11.50
2018,06,07,05,57,11.40
2018,06,07,05,58,11.50
2018,06,07,05,59,11.40
2018,06,07,06,00,11.40
2018,06,07,06,01,11.40
2018,06,07,06,02,11.40
2018,06,07,06,03,11.40
2018,06,07,06,04,11.40
2018,06,07,06,05,11.40
2018,06,07,06,06,11.40
2018,06,07,06,07,11.40
2018,06,07,06,08,11.40
2018,06,07,06,09,11.40
2018,06,07,06,10,11.40
2018,06,07,06,11,11.40
2018,06,07,06,12,11.40
2018,06,07,06,13,11.40
2018,06,07,06,14,11.40
2018,06,07,06,15,11.40
2018,06,07,06,16,11.40
2018,06,07,06,17,11.50
2018,06,07,06,18,11.50
2018,06,07,06,19,11.60
2018,06,07,06,20,11.60
2018,06,07,06,21,11.60
2018,06,07,06,22,11.60
2018,06,07,06,23,11.60
2018,06,07,06,24,11.60
2018,06,07,06,25,11.60
2018,06,07,06,26,11.70
2018,06,07,06,27,11.70
2018,06,07,06,28,11.70
2018,06,07,06,29,11.70
2018,06,07,06,30,11.70
2018,06,07,06,31,11.70
2018,06,07,06,32,11.70
2018,06,07,06,33,11.70
2018,06,07,06,34,11.80
2018,06,07,06,35,11.80
2018,06,07,06,36,11.80
2018,06,07,06,37,11.80
2018,06,07,06,38,11.80
2018,06,07,06,39,11.80
2018,06,07,06,40,11.80
2018,06,07,06,41,11.80
2018,06,07,06,42,11.80
2018,06,07,06,43,11.80
2018,06,07,06,44,11.80
2018,06,07,06,45,11.80
2018,06,07,06,46,11.80
2018,06,07,06,47,11.80
2018,06,07,06,48,11.90
2018,06,07,06,49,11.90
2018,06,07,06,50,11.90
2018,06,07,06,51,12.00
2018,06,07,06,52,12.00
2018,06,07,06,53,12.00
2018,06,07,06,54,12.10
2018,06,07,06,55,12.10
2018,06,07,06,56,12.20
2018,06,07,06,57,12.20
2018,06,07,06,58,12.20
2018,06,07,06,59,12.20
2018,06,07,07,00,12.20
2018,06,07,07,01,12.20
2018,06,07,07,02,12.20
2018,06,07,07,03,12.30
2018,06,07,07,04,12.30
2018,06,07,07,05,12.20
2018,06,07,07,06,12.20
2018,06,07,07,07,12.20
2018,06,07,07,08,12.20
2018,06,07,07,09,12.20
2018,06,07,07,10,12.20
2018,06,07,07,11,12.20
2018,06,07,07,12,12.20
2018,06,07,07,13,12.20
2018,06,07,07,14,12.20
2018,06,07,07,15,12.20
2018,06,07,07,16,12.20
2018,06,07,07,17,12.20
2018,06,07,07,18,12.20
2018,06,07,07,19,12.20
2018,06,07,07,20,12.20
2018,06,07,07,21,12.20
2018,06,07,07,22,12.20
2018,06,07,07,23,12.20
2018,06,07,07,24,12.20
2018,06,07,07,25,12.20
2018,06,07,07,26,12.20
2018,06,07,07,27,12.20
2018,06,07,07,28,12.20
2018,06,07,07,29,12.20
2018,06,07,07,30,12.30
2018,06,07,07,31,12.30
2018,06,07,07,32,12.30
2018,06,07,07,33,12.30
2018,06,07,07,34,12.30
2018,06,07,07,35,12.30
2018,06,07,07,36,12.30
2018,06,07,07,37,12.30
2018,06,07,07,38,12.40
2018,06,07,07,39,12.40
2018,06,07,07,40,12.40
2018,06,07,07,41,12.40
2018,06,07,07,42,12.40
2018,06,07,07,43,12.40
2018,06,07,07,44,12.40
2018,06,07,07,45,12.40
2018,06,07,07,46,12.40
2018,06,07,07,47,12.40
2018,06,07,07,48,12.40
2018,06,07,07,49,12.40
2018,06,07,07,50,12.40
2018,06,07,07,51,12.50
2018,06,07,07,52,12.50
2018,06,07,07,53,12.60
2018,06,07,07,54,12.60
2018,06,07,07,55,12.60
2018,06,07,07,56,12.60
2018,06,07,07,57,12.60
2018,06,07,07,58,12.60
2018,06,07,07,59,12.60
2018,06,07,08,00,12.60
2018,06,07,08,01,12.70
2018,06,07,08,02,12.70
2018,06,07,08,03,12.70
2018,06,07,08,04,12.70
2018,06,07,08,05,12.70
2018,06,07,08,06,12.70
2018,06,07,08,07,12.80
2018,06,07,08,08,12.80
2018,06,07,08,09,12.80
2018,06,07,08,10,12.80
2018,06,07,08,11,12.80
2018,06,07,08,12,12.90
2018,06,07,08,13,12.90
2018,06,07,08,14,12.90
2018,06,07,08,15,13.00
2018,06,07,08,16,13.10
2018,06,07,08,17,13.10
2018,06,07,08,18,13.10
2018,06,07,08,19,13.10
2018,06,07,08,20,13.10
2018,06,07,08,21,13.10
2018,06,07,08,22,13.10
2018,06,07,08,23,13.10
2018,06,07,08,24,13.10
2018,06,07,08,25,13.10
2018,06,07,08,26,13.20
2018,06,07,08,27,13.20
2018,06,07,08,28,13.20
2018,06,07,08,29,13.20
2018,06,07,08,30,13.20
2018,06,07,08,31,13.20
2018,06,07,08,32,13.20
2018,06,07,08,33,13.20
2018,06,07,08,34,13.20
2018,06,07,08,35,13.30
2018,06,07,08,36,13.30
2018,06,07,08,37,13.30
2018,06,07,08,38,13.30
2018,06,07,08,39,13.30
2018,06,07,08,40,13.30
2018,06,07,08,41,13.30
2018,06,07,08,42,13.30
2018,06,07,08,43,13.30
2018,06,07,08,44,13.40
2018,06,07,08,45,13.40
2018,06,07,08,46,13.40
2018,06,07,08,47,13.40
2018,06,07,08,48,13.40
2018,06,07,08,49,13.40
2018,06,07,08,50,13.50
2018,06,07,08,51,13.50
2018,06,07,08,52,13.50
2018,06,07,08,53,13.60
2018,06,07,08,54,13.60
2018,06,07,08,55,13.70
2018,06,07,08,56,13.70
2018,06,07,08,57,13.70
2018,06,07,08,58,13.70
2018,06,07,08,59,13.70
2018,06,07,09,00,13.80
2018,06,07,09,01,13.80
2018,06,07,09,02,13.80
2018,06,07,09,03,13.80
2018,06,07,09,04,13.80
2018,06,07,09,05,13.80
2018,06,07,09,06,13.90
2018,06,07,09,07,13.90
2018,06,07,09,08,13.90
2018,06,07,09,09,14.00
2018,06,07,09,10,14.00
2018,06,07,09,11,14.00
2018,06,07,09,12,14.10
2018,06,07,09,13,14.10
2018,06,07,09,14,14.10
2018,06,07,09,15,14.10
2018,06,07,09,16,14.10
2018,06,07,09,17,14.10
2018,06,07,09,18,14.20
2018,06,07,09,19,14.20
2018,06,07,09,20,14.20
2018,06,07,09,21,14.20
2018,06,07,09,22,14.20
2018,06,07,09,23,14.20
2018,06,07,09,24,14.20
2018,06,07,09,25,14.20
2018,06,07,09,26,14.20
2018,06,07,09,27,14.20
2018,06,07,09,28,14.20
2018,06,07,09,29,14.20
2018,06,07,09,30,14.20
2018,06,07,09,31,14.20
2018,06,07,09,32,14.20
2018,06,07,09,33,14.20
2018,06,07,09,34,14.20
2018,06,07,09,35,14.20
2018,06,07,09,36,14.20
2018,06,07,09,37,14.20
2018,06,07,09,38,14.20
2018,06,07,09,39,14.20
2018,06,07,09,40,14.20
2018,06,07,09,41,14.20
2018,06,07,09,42,14.20
2018,06,07,09,43,14.20
2018,06,07,09,44,14.20
2018,06,07,09,45,14.20
2018,06,07,09,46,14.20
2018,06,07,09,47,14.20
2018,06,07,09,48,14.20
2018,06,07,09,49,14.20
2018,06,07,09,50,14.20
2018,06,07,09,51,14.20
2018,06,07,09,52,14.30
2018,06,07,09,53,14.30
2018,06,07,09,54,14.30
2018,06,07,09,55,14.30
2018,06,07,09,56,14.30
2018,06,07,09,57,14.30
2018,06,07,09,58,14.30
2018,06,07,09,59,14.30
2018,06,07,10,00,14.30
2018,06,07,10,01,14.40
2018,06,07,10,02,14.40
2018,06,07,10,03,14.40
2018,06,07,10,04,14.40
2018,06,07,10,05,14.40
2018,06,07,10,06,14.50
2018,06,07,10,07,14.50
2018,06,07,10,08,14.50
2018,06,07,10,09,14.60
2018,06,07,10,10,14.60
2018,06,07,10,11,14.60
2018,06,07,10,12,14.60
2018,06,07,10,13,14.60
2018,06,07,10,14,14.60
2018,06,07,10,15,14.70
2018,06,07,10,16,14.70
2018,06,07,10,17,14.70
2018,06,07,10,18,14.70
2018,06,07,10,19,14.70
2018,06,07,10,20,14.70
2018,06,07,10,21,14.70
2018,06,07,10,22,14.70
2018,06,07,10,23,14.70
2018,06,07,10,24,14.70
2018,06,07,10,25,14.70
2018,06,07,10,26,14.70
2018,06,07,10,27,14.70
2018,06,07,10,28,14.70
2018,06,07,10,29,14.70
2018,06,07,10,30,14.80
2018,06,07,10,31,14.80
2018,06,07,10,32,14.80
2018,06,07,10,33,14.80
2018,06,07,10,34,14.80
2018,06,07,10,35,14.80
2018,06,07,10,36,14.80
2018,06,07,10,37,14.80
2018,06,07,10,38,14.80
2018,06,07,10,39,14.80
2018,06,07,10,40,14.80
2018,06,07,10,41,14.80
2018,06,07,10,42,14.80
2018,06,07,10,43,14.80
2018,06,07,10,44,14.80
2018,06,07,10,45,14.80
2018,06,07,10,46,14.80
2018,06,07,10,47,14.80
2018,06,07,10,48,14.80
2018,06,07,10,49,14.80
2018,06,07,10,50,14.80
2018,06,07,10,51,14.80
2018,06,07,10,52,14.80
2018,06,07,10,53,14.80
2018,06,07,10,54,14.80
2018,06,07,10,55,14.80
2018,06,07,10,56,14.80
2018,06,07,10,57,14.80
2018,06,07,10,58,14.80
2018,06,07,10,59,14.80
2018,06,07,11,00,14.80
2018,06,07,11,01,14.80
2018,06,07,11,02,14.80
2018,06,07,11,03,14.80
2018,06,07,11,04,14.80
2018,06,07,11,05,14.80
2018,06,07,11,06,14.80
2018,06,07,11,07,14.80
2018,06,07,11,08,14.80
2018,06,07,11,09,14.80
2018,06,07,11,10,14.80
2018,06,07,11,11,14.80
2018,06,07,11,12,14.90
2018,06,07,11,13,14.90
2018,06,07,11,14,14.90
2018,06,07,11,15,14.90
2018,06,07,11,16,14.90
2018,06,07,11,17,15.00
2018,06,07,11,18,15.00
2018,06,07,11,19,15.00
2018,06,07,11,20,15.00
2018,06,07,11,21,15.00
2018,06,07,11,22,15.10
2018,06,07,11,23,15.10
2018,06,07,11,24,15.10
2018,06,07,11,25,15.10
2018,06,07,11,26,15.10
2018,06,07,11,27,15.10
2018,06,07,11,28,15.10
2018,06,07,11,29,15.10
2018,06,07,11,30,15.10
2018,06,07,11,31,15.10
2018,06,07,11,32,15.10
2018,06,07,11,33,15.10
2018,06,07,11,34,15.10
2018,06,07,11,35,15.10
2018,06,07,11,36,15.10
2018,06,07,11,37,15.10
2018,06,07,11,38,15.10
2018,06,07,11,39,15.10
2018,06,07,11,40,15.10
2018,06,07,11,41,15.10
2018,06,07,11,42,15.10
2018,06,07,11,43,15.10
2018,06,07,11,44,15.00
2018,06,07,11,45,15.00
2018,06,07,11,46,14.90
2018,06,07,11,47,14.90
2018,06,07,11,48,14.90
2018,06,07,11,49,14.80
2018,06,07,11,50,14.80
2018,06,07,11,51,14.80
2018,06,07,11,52,14.80
2018,06,07,11,53,14.70
2018,06,07,11,54,14.70
2018,06,07,11,55,14.70
2018,06,07,11,56,14.70
2018,06,07,11,57,14.70
2018,06,07,11,58,14.70
2018,06,07,11,59,14.70
2018,06,07,12,00,14.70
2018,06,07,12,01,14.70
2018,06,07,12,02,14.70
2018,06,07,12,03,14.70
2018,06,07,12,04,14.70
2018,06,07,12,05,14.60
2018,06,07,12,06,14.60
2018,06,07,12,07,14.60
2018,06,07,12,08,14.60
2018,06,07,12,09,14.60
2018,06,07,12,10,14.70
2018,06,07,12,11,14.70
2018,06,07,12,12,14.70
2018,06,07,12,13,14.70
2018,06,07,12,14,14.70
2018,06,07,12,15,14.80
2018,06,07,12,16,14.80
2018,06,07,12,17,14.80
2018,06,07,12,18,14.80
2018,06,07,12,19,14.90
2018,06,07,12,20,14.90
2018,06,07,12,21,14.90
2018,06,07,12,22,15.00
2018,06,07,12,23,15.00
2018,06,07,12,24,15.10
2018,06,07,12,25,15.10
2018,06,07,12,26,15.20
2018,06,07,12,27,15.20
2018,06,07,12,28,15.20
2018,06,07,12,29,15.30
2018,06,07,12,30,15.30
2018,06,07,12,31,15.40
2018,06,07,12,32,15.40
2018,06,07,12,33,15.40
2018,06,07,12,34,15.50
2018,06,07,12,35,15.50
2018,06,07,12,36,15.50
2018,06,07,12,37,15.60
2018,06,07,12,38,15.60
2018,06,07,12,39,15.60
2018,06,07,12,40,15.60
2018,06,07,12,41,15.50
2018,06,07,12,42,15.50
2018,06,07,12,43,15.40
2018,06,07,12,44,15.40
2018,06,07,12,45,15.40
2018,06,07,12,46,15.40
2018,06,07,12,47,15.50
2018,06,07,12,48,15.50
2018,06,07,12,49,15.50
2018,06,07,12,50,15.50
2018,06,07,12,51,15.50
2018,06,07,12,52,15.60
2018,06,07,12,53,15.60
2018,06,07,12,54,15.70
2018,06,07,12,55,15.70
2018,06,07,12,56,15.60
2018,06,07,12,57,15.60
2018,06,07,12,58,15.60
2018,06,07,12,59,15.60
2018,06,07,13,00,15.60
2018,06,07,13,01,15.50
2018,06,07,13,02,15.50
2018,06,07,13,03,15.50
2018,06,07,13,04,15.50
2018,06,07,13,05,15.50
2018,06,07,13,06,15.50
2018,06,07,13,07,15.60
2018,06,07,13,08,15.60
2018,06,07,13,09,15.60
2018,06,07,13,10,15.60
2018,06,07,13,11,15.60
2018,06,07,13,12,15.60
2018,06,07,13,13,15.60
2018,06,07,13,14,15.60
2018,06,07,13,15,15.60
2018,06,07,13,16,15.70
2018,06,07,13,17,15.70
2018,06,07,13,18,15.70
2018,06,07,13,19,15.60
2018,06,07,13,20,15.60
2018,06,07,13,21,15.60
2018,06,07,13,22,15.50
2018,06,07,13,23,15.50
2018,06,07,13,24,15.40
2018,06,07,13,25,15.40
2018,06,07,13,26,15.30
2018,06,07,13,27,15.30
2018,06,07,13,28,15.30
2018,06,07,13,29,15.20
2018,06,07,13,30,15.20
2018,06,07,13,31,15.20
2018,06,07,13,32,15.20
2018,06,07,13,33,15.20
2018,06,07,13,34,15.20
2018,06,07,13,35,15.10
2018,06,07,13,36,15.10
2018,06,07,13,37,15.00
2018,06,07,13,38,15.00
2018,06,07,13,39,15.00
2018,06,07,13,40,15.00
2018,06,07,13,41,15.00
2018,06,07,13,42,15.00
2018,06,07,13,43,15.00
2018,06,07,13,44,15.00
2018,06,07,13,45,15.00
2018,06,07,13,46,15.00
2018,06,07,13,47,15.00
2018,06,07,13,48,15.10
2018,06,07,13,49,15.10
2018,06,07,13,50,15.10
2018,06,07,13,51,15.10
2018,06,07,13,52,15.10
2018,06,07,13,53,15.20
2018,06,07,13,54,15.20
2018,06,07,13,55,15.20
2018,06,07,13,56,15.10
2018,06,07,13,57,15.10
2018,06,07,13,58,15.10
2018,06,07,13,59,15.10
2018,06,07,14,00,15.10
2018,06,07,14,01,15.10
2018,06,07,14,02,15.00
2018,06,07,14,03,15.00
2018,06,07,14,04,15.00
2018,06,07,14,05,15.00
2018,06,07,14,06,15.00
2018,06,07,14,07,15.10
2018,06,07,14,08,15.10
2018,06,07,14,09,15.10
2018,06,07,14,10,15.10
2018,06,07,14,11,15.10
2018,06,07,14,12,15.10
2018,06,07,14,13,15.10
2018,06,07,14,14,15.10
2018,06,07,14,15,15.10
2018,06,07,14,16,15.10
2018,06,07,14,17,15.10
2018,06,07,14,18,15.10
2018,06,07,14,19,15.20
2018,06,07,14,20,15.10
2018,06,07,14,21,15.10
2018,06,07,14,22,15.10
2018,06,07,14,23,15.10
2018,06,07,14,24,15.10
2018,06,07,14,25,15.10
2018,06,07,14,26,15.10
2018,06,07,14,27,15.00
2018,06,07,14,28,15.00
2018,06,07,14,29,15.00
2018,06,07,14,30,15.00
2018,06,07,14,31,15.00
2018,06,07,14,32,15.00
2018,06,07,14,33,15.00
2018,06,07,14,34,15.00
2018,06,07,14,35,14.90
2018,06,07,14,36,14.90
2018,06,07,14,37,14.90
2018,06,07,14,38,14.90
2018,06,07,14,39,14.90
2018,06,07,14,40,14.90
2018,06,07,14,41,14.90
2018,06,07,14,42,14.90
2018,06,07,14,43,14.90
2018,06,07,14,44,14.90
2018,06,07,14,45,14.80
2018,06,07,14,46,14.80
2018,06,07,14,47,14.80
2018,06,07,14,48,14.80
2018,06,07,14,49,14.80
2018,06,07,14,50,14.70
2018,06,07,14,51,14.70
2018,06,07,14,52,14.70
2018,06,07,14,53,14.70
2018,06,07,14,54,14.70
2018,06,07,14,55,14.70
2018,06,07,14,56,14.70
2018,06,07,14,57,14.70
2018,06,07,14,58,14.60
2018,06,07,14,59,14.60
2018,06,07,15,00,14.60
2018,06,07,15,01,14.60
2018,06,07,15,02,14.60
2018,06,07,15,03,14.60
2018,06,07,15,04,14.60
2018,06,07,15,05,14.60
2018,06,07,15,06,14.60
2018,06,07,15,07,14.60
2018,06,07,15,08,14.60
2018,06,07,15,09,14.60
2018,06,07,15,10,14.60
2018,06,07,15,11,14.60
2018,06,07,15,12,14.60
2018,06,07,15,13,14.60
2018,06,07,15,14,14.60
2018,06,07,15,15,14.60
2018,06,07,15,16,14.70
2018,06,07,15,17,14.70
2018,06,07,15,18,14.70
2018,06,07,15,19,14.70
2018,06,07,15,20,14.70
2018,06,07,15,21,14.70
2018,06,07,15,22,14.70
2018,06,07,15,23,14.70
2018,06,07,15,24,14.70
2018,06,07,15,25,14.70
2018,06,07,15,26,14.70
2018,06,07,15,27,14.70
2018,06,07,15,28,14.60
2018,06,07,15,29,14.60
2018,06,07,15,30,14.60
2018,06,07,15,31,14.60
2018,06,07,15,32,14.60
2018,06,07,15,33,14.60
2018,06,07,15,34,14.60
2018,06,07,15,35,14.60
2018,06,07,15,36,14.50
2018,06,07,15,37,14.50
2018,06,07,15,38,14.50
2018,06,07,15,39,14.50
2018,06,07,15,40,14.40
2018,06,07,15,41,14.50
2018,06,07,15,42,14.40
2018,06,07,15,43,14.40
2018,06,07,15,44,14.40
2018,06,07,15,45,14.40
2018,06,07,15,46,14.40
2018,06,07,15,47,14.40
2018,06,07,15,48,14.40
2018,06,07,15,49,14.40
2018,06,07,15,50,14.40
2018,06,07,15,51,14.40
2018,06,07,15,52,14.40
2018,06,07,15,53,14.30
2018,06,07,15,54,14.30
2018,06,07,15,55,14.30
2018,06,07,15,56,14.30
2018,06,07,15,57,14.30
2018,06,07,15,58,14.20
2018,06,07,15,59,14.20
2018,06,07,16,00,14.20
2018,06,07,16,01,14.20
2018,06,07,16,02,14.10
2018,06,07,16,03,14.10
2018,06,07,16,04,14.10
2018,06,07,16,05,14.10
2018,06,07,16,06,14.00
2018,06,07,16,07,14.00
2018,06,07,16,08,14.00
2018,06,07,16,09,13.90
2018,06,07,16,10,13.90
2018,06,07,16,11,13.90
2018,06,07,16,12,13.90
2018,06,07,16,13,13.90
2018,06,07,16,14,13.90
2018,06,07,16,15,13.90
2018,06,07,16,16,13.90
2018,06,07,16,17,13.80
2018,06,07,16,18,13.90
2018,06,07,16,19,13.90
2018,06,07,16,20,13.80
2018,06,07,16,21,13.80
2018,06,07,16,22,13.80
2018,06,07,16,23,13.80
2018,06,07,16,24,13.80
2018,06,07,16,25,13.80
2018,06,07,16,26,13.80
2018,06,07,16,27,13.80
2018,06,07,16,28,13.80
2018,06,07,16,29,13.80
2018,06,07,16,30,13.80
2018,06,07,16,31,13.80
2018,06,07,16,32,13.80
2018,06,07,16,33,13.80
2018,06,07,16,34,13.80
2018,06,07,16,35,13.80
2018,06,07,16,36,13.80
2018,06,07,16,37,13.80
2018,06,07,16,38,13.80
2018,06,07,16,39,13.80
2018,06,07,16,40,13.90
2018,06,07,16,41,13.90
2018,06,07,16,42,14.00
2018,06,07,16,43,14.10
2018,06,07,16,44,14.10
2018,06,07,16,45,14.20
2018,06,07,16,46,14.20
2018,06,07,16,47,14.30
2018,06,07,16,48,14.40
2018,06,07,16,49,14.50
2018,06,07,16,50,14.60
2018,06,07,16,51,14.60
2018,06,07,16,52,14.70
2018,06,07,16,53,14.70
2018,06,07,16,54,14.70
2018,06,07,16,55,14.70
2018,06,07,16,56,14.70
2018,06,07,16,57,14.70
2018,06,07,16,58,14.70
2018,06,07,16,59,14.80
2018,06,07,17,00,14.80
2018,06,07,17,01,14.80
2018,06,07,17,02,14.80
2018,06,07,17,03,14.90
2018,06,07,17,04,14.90
2018,06,07,17,05,15.00
2018,06,07,17,06,15.00
2018,06,07,17,07,15.00
2018,06,07,17,08,15.10
2018,06,07,17,09,15.20
2018,06,07,17,10,15.20
2018,06,07,17,11,15.30
2018,06,07,17,12,15.30
2018,06,07,17,13,15.30
2018,06,07,17,14,15.40
2018,06,07,17,15,15.40
2018,06,07,17,16,15.40
2018,06,07,17,17,15.40
2018,06,07,17,18,15.40
2018,06,07,17,19,15.40